TimeFrame on Redefined Productions
Outwar Sigil TimeFrame

Sigil TimeFrame

96 Gods Updated: 2019-07-14 14:40:01
NameTime LeftWindow Opens
Animated Captain18d 09:532019-06-27 04:09:00
Old World Drake18d 08:462019-06-27 05:16:00
Q-SEC Commander1d 17:532019-07-13 20:09:00
Lord Sibannac0d 21:292019-07-14 16:33:00
Jazzmin, Maiden of Vitality0d 12:272019-07-15 01:35:00
Volgan the Living Ironbark0d 11:542019-07-15 02:08:00
Anguish0d 11:292019-07-15 02:33:00
Vitkros, Hydra of the Deep0d 10:342019-07-15 03:28:00
Hyrak, Bringer of Nightmares0d 10:292019-07-15 03:33:00
Jorun the Blazing Swordsman0d 10:082019-07-15 03:54:00
Brutalitar, Lord of the Underworld0d 09:402019-07-15 04:22:00
Wanhiroeaz the Devourer0d 08:412019-07-15 05:21:00
Varsanor, Master of Darkness0d 07:132019-07-15 06:49:00
Melt Bane, The Forbidden Demon Dragon0d 06:012019-07-15 08:01:00
Howldroid, Tormentor of the Pit0d 05:272019-07-15 08:35:00
Lacuste of the Swarm0d 05:132019-07-15 08:49:00
Ganja the Stone Golem0d 04:432019-07-15 09:19:00
Samatha Dark-Soul0d 04:182019-07-15 09:44:00
Lady Ariella0d 00:162019-07-15 13:46:00
Pinosis0d 00:142019-07-15 13:48:00
Nessam0d 00:132019-07-15 13:49:00
Bloodchill the Grizzly0d 00:022019-07-15 14:05:00
Shadow0d 00:242019-07-15 14:27:00
Gnorb0d 00:582019-07-15 15:01:00
Mistress of the Sword0d 01:322019-07-15 15:35:00
Numerocure, The Black Messenger of Evil0d 02:492019-07-15 16:52:00
Slashbrood, Devourer of the Blackness0d 03:182019-07-15 17:21:00
Ag Nabak the Abomination0d 05:212019-07-15 19:24:00
Rancid, Lord of Thugs0d 06:352019-07-15 20:38:00
Terrance, Rebel of Rallis0d 08:012019-07-15 22:04:00
Ancient Magus Tarkin0d 09:082019-07-15 23:11:00
Lord Xordam0d 09:082019-07-15 23:11:00
Kretok, Descendant of Nature0d 09:282019-07-15 23:31:00
Rotborn, Eater of the Dead0d 09:412019-07-15 23:44:00
Synge, The Red Dragon0d 10:432019-07-16 00:46:00
Nayark the Mummified Sorcerer0d 11:142019-07-16 01:17:00
Lord Varan0d 11:302019-07-16 01:33:00
Raiyar, the Shadow Master0d 11:542019-07-16 01:57:00
Sarcrina the Astral Priestess0d 12:122019-07-16 02:15:00
Sigil, Lich of Woe0d 13:172019-07-16 03:20:00
Crantos, Defender of Ultimation0d 13:252019-07-16 03:28:00
Murderface0d 13:532019-07-16 03:56:00
Ebliss, Fallen Angel of Despair0d 14:062019-07-16 04:09:00
Quiver, The Renegade0d 15:002019-07-16 05:03:00
Crane0d 15:252019-07-16 05:28:00
Balerion, Dragon of Dread0d 15:282019-07-16 05:31:00
Anvilfist0d 15:502019-07-16 05:53:00
Freezebreed, The Frozen Manipulator0d 15:542019-07-16 05:57:00
Garland, The Lord Keeper0d 15:592019-07-16 06:02:00
Baron Mu, Dark Rider of the Undead0d 17:382019-07-16 07:41:00
Detox0d 17:502019-07-16 07:53:00
Zikkir the Dark Archer0d 19:242019-07-16 09:27:00
Threk, King of Lords0d 19:312019-07-16 09:34:00
Sylvanna TorLai0d 19:522019-07-16 09:55:00
Lord Narada0d 23:182019-07-16 13:21:00
Smoot the Yeti1d 00:332019-07-16 14:36:00
Keeper of Nature1d 02:072019-07-16 16:10:00
King Ashnar, Lord of the Unliving1d 02:592019-07-16 17:02:00
Grivvek, Protector of the Brood1d 02:592019-07-16 17:02:00
Skarthul the Avenged1d 03:492019-07-16 17:52:00
Lady Chaos, Queen of the Abyss1d 04:432019-07-16 18:46:00
Tsort1d 05:412019-07-16 19:44:00
The Emerald Assassin1d 06:502019-07-16 20:53:00
Dreg nor, Keeper of the Infernal Essence1d 07:432019-07-16 21:46:00
Amalgamated Apparition1d 07:492019-07-16 21:52:00
Tylos, The Lord Master1d 09:192019-07-16 23:22:00
Archdevil Yirkon1d 13:352019-07-17 03:38:00
Akkel the Enflamed Warrior2d 00:072019-07-17 14:10:00
Traxodon the Plaguebringer2d 02:392019-07-17 16:42:00
Zertan, The Collector2d 07:402019-07-17 21:43:00
Hackerphage, Protector of the Gateway2d 09:102019-07-17 23:13:00
Nar Zhul, Slayer of All2d 14:322019-07-18 04:35:00
Crolvak, the Fire Master2d 14:442019-07-18 04:47:00
Lord Suka2d 15:592019-07-18 06:02:00
Bolkor, the Holy Master2d 17:462019-07-18 07:49:00
Emperor Neudeus, Controller of the Universe2d 20:172019-07-18 10:20:00
Windstrike The Vile2d 23:432019-07-18 13:46:00
Xynak, the Arcane Master3d 01:302019-07-18 15:33:00
Great Lord Ganeshan3d 04:112019-07-18 18:14:00
Felroc, Overseer of Hellfire3d 04:432019-07-18 18:46:00
Esquin, the Kinetic Master3d 08:112019-07-18 22:14:00
Kro Shuk, Doomslayer3d 09:402019-07-18 23:43:00
Gorganus of the Wood3d 10:102019-07-19 00:13:00
Skybrine The Inescapable3d 17:372019-07-19 07:40:00
Dlanod, the Crazed Chancellor3d 18:202019-07-19 08:23:00
Viserion, the Necrodragon3d 19:052019-07-19 09:08:00
Dexor, Victor of Veldara4d 04:362019-07-19 18:39:00
Ormsul the Putrid4d 06:372019-07-19 20:40:00
Nafir, God of Desolation4d 09:572019-07-20 00:00:00
Karvaz, Lord of Alsayic5d 03:432019-07-20 17:46:00
Straya, the Underworld Ruler5d 06:142019-07-20 20:17:00
Shaik, Servant of Arkron87d 07:302019-04-19 06:32:00
Rook, Hand of Arkron86d 02:022019-04-20 12:00:00
Noxious Slug33d 00:082019-06-12 13:54:00
Beast of Cards32d 11:222019-06-13 02:40:00
Jade Dragonite18d 08:502019-06-27 05:12:00